EW8775 Weather Reports


time (UTC)temp
C
wind
direction
speed
KPH
gust
KPH
rain 1hr
cm
rain 24hr
cm
rain mn
cm
humidity
%
barometer
mb
20220124163016 -2 0.0 0.0 0.00 0.00 0.00 81 1020.4
20220124160015 -3 0.0 0.0 0.00 0.00 0.00 83 1020.3
20220124153015 -4 0.0 0.0 0.00 0.00 0.00 85 1020.3
20220124150016 -5 0.0 0.0 0.00 0.00 0.00 85 1020.4
20220124143015 -5 0.0 0.0 0.00 0.00 0.00 85 1020.5
20220124140015 -5 0.0 0.0 0.00 0.00 0.00 85 1020.7
20220124133017 -4 0.0 0.0 0.00 0.00 0.00 85 1020.6
20220124130015 -4 0.0 0.0 0.00 0.00 0.00 85 1020.6
20220124123015 -4 0.0 0.0 0.00 0.00 0.00 83 1021.1
20220124120015 -3 0.0 0.0 0.00 0.00 0.00 83 1021.6
20220124113017 -3 0.0 0.0 0.00 0.00 0.00 83 1021.8
20220124110017 -3 0.0 0.0 0.00 0.00 0.00 80 1021.9
20220124103017 -3 0.0 0.0 0.00 0.00 0.00 78 1022.1
20220124100017 -3 0.0 0.0 0.00 0.00 0.00 78 1022.2
20220124093017 -3 0.0 0.0 0.00 0.00 0.00 76 1022.4
20220124090017 -2 0.0 0.0 0.00 0.00 0.00 76 1022.7
20220124083017 -3 0.0 0.0 0.00 0.00 0.00 76 1023.0
20220124080017 -2 0.0 0.0 0.00 0.00 0.00 74 1023.5
20220124073017 -2 90 1.6 4.8 0.00 0.00 0.00 74 1023.6
20220124070016 -2 90 1.6 6.4 0.00 0.00 0.00 73 1023.8
20220124063016 -1 0.0 0.0 0.00 0.00 0.00 72 1023.9
20220124060015 -1 112 1.6 4.8 0.00 0.00 0.00 71 1024.1
20220124053015 -1 0.0 6.4 0.00 0.00 0.00 71 1024.2
20220124050015 -1 90 1.6 4.8 0.00 0.00 0.00 72 1024.1
20220124043016 -1 90 3.2 6.4 0.00 0.00 0.00 70 1024.3
20220124040015 -1 90 3.2 6.4 0.00 0.00 0.00 70 1024.4
20220124033015 -1 90 1.6 8.0 0.00 0.00 0.00 71 1024.3
20220124030018 -1 90 1.6 4.8 0.00 0.00 0.00 71 1024.3
20220124023017 0 90 3.2 6.4 0.00 0.00 0.00 70 1024.2
20220124020017 0 90 1.6 6.4 0.00 0.00 0.00 71 1024.4
20220124013017 0 0.0 0.0 0.00 0.00 0.00 68 1024.2
20220124010017 0 0.0 4.8 0.00 0.00 0.00 65 1024.4
20220124003017 1 202 3.2 9.7 0.00 0.00 0.00 64 1024.6
20220124000016 2 225 4.8 9.7 0.00 0.00 0.00 61 1024.8
20220123233017 2 225 3.2 8.0 0.00 0.00 0.00 60 1025.0
20220123230017 3 247 3.2 8.0 0.00 0.00 0.00 59 1025.1
20220123223016 2 247 4.8 11.3 0.00 0.00 0.00 61 1025.5
20220123220017 2 270 3.2 12.9 0.00 0.00 0.00 60 1025.2
20220123213016 2 270 4.8 12.9 0.00 0.00 0.00 64 1025.3
20220123210016 1 180 4.8 12.9 0.00 0.00 0.00 64 1025.5
20220123203016 1 180 4.8 11.3 0.00 0.00 0.00 65 1025.9
20220123200016 1 202 3.2 12.9 0.00 0.00 0.00 67 1026.3
20220123193016 0 202 3.2 9.7 0.00 0.00 0.00 67 1026.9
20220123190016 0 247 3.2 11.3 0.00 0.00 0.00 70 1027.3
20220123183016 0 202 3.2 8.0 0.00 0.00 0.00 73 1027.9
20220123180016 -1 315 1.6 8.0 0.00 0.00 0.00 75 1028.0
20220123173016 -2 22 1.6 6.4 0.00 0.00 0.00 78 1028.1
20220123170016 -2 0.0 4.8 0.00 0.00 0.00 78 1028.0